カタログに戻る

THORAD DELTA 1 DEB

LostLEO
NORAD 42594·DEBRIS·🇺🇸 United States

打ち上げ Nov 15, 1974 から Vandenberg Space Force Base

Loading…

次のパス (今後24時間)

TLE

古いSource: Space-Track

元期: Aug 1, 2026, 17:55 UTC

1 42594U 74089FK  26213.74675890  .00000196  00000-0  20702-2 0  9991
2 42594 100.9001 139.9426 0171384 148.9817 241.7766 12.22542599671225

AllMySatでTHORAD DELTA 1 DEBをリアルタイム追跡

Download on the App Store